When you browse on this site, cookies collect data to enhance your experience and personalize the content and advertising you see.
Visit our Privacy Policy to learn more. By continuing to use the site, you agree to this use of cookies and data.
  • In Hungary
  • List of Countries
  • For 7 days
  • Water Temperature
  • Satellite Maps
  • Weather Map
  • News
  • Weather Widgets
  • user-avatar
    Login

    Hourly Weather Liberty

    Today, 23 February, Saturday

    Time Temperature Precipitation Wind Pressure Humidity
    00:00 +2°C° 2.1 mm 2 mps 736 mmHg 97%
    01:00 +1°C° 3.2 mm 3 mps 735 mmHg 97%
    02:00 +1°C° 3.2 mm 3 mps 734 mmHg 98%
    03:00 +1°C° 3.2 mm 3 mps 734 mmHg 98%
    04:00 +1°C° 0.2 mm 3 mps 733 mmHg 98%
    05:00 +1°C° 0.2 mm 3 mps 732 mmHg 98%
    06:00 +1°C° 0.2 mm 3 mps 732 mmHg 98%
    07:00 +2°C° 0.2 mm 3 mps 731 mmHg 98%
    08:00 +2°C° 0.2 mm 3 mps 731 mmHg 98%
    09:00 +1°C° 0.2 mm 4 mps 730 mmHg 98%
    10:00 +3°C° 1.2 mm 4 mps 728 mmHg 98%
    11:00 +5°C° 1.2 mm 4 mps 727 mmHg 98%
    12:00 +6°C° 1.2 mm 5 mps 725 mmHg 98%
    13:00 +8°C° 0.4 mm 5 mps 724 mmHg 87%
    14:00 +10°C° 0.4 mm 5 mps 723 mmHg 77%
    15:00 +13°C° 0.4 mm 5 mps 723 mmHg 67%
    16:00 +11°C° 0 mm 4 mps 722 mmHg 68%
    17:00 +8°C° 0 mm 4 mps 722 mmHg 69%
    18:00 +7°C° 0 mm 3 mps 722 mmHg 70%
    19:00 +5°C° 0 mm 5 mps 723 mmHg 76%
    20:00 +2°C° 0 mm 7 mps 723 mmHg 83%
    21:00 0°C° 0 mm 9 mps 724 mmHg 89%
    22:00 -1°C° 0 mm 9 mps 726 mmHg 86%
    23:00 -2°C° 0 mm 10 mps 728 mmHg 83%

    Tomorrow, 24 February, Sunday

    Time Temperature Precipitation Wind Pressure Humidity
    00:00 -3°C° 0 mm 10 mps 730 mmHg 79%
    01:00 -4°C° 0 mm 10 mps 732 mmHg 76%
    02:00 -4°C° 0 mm 9 mps 733 mmHg 73%
    03:00 -5°C° 0 mm 9 mps 734 mmHg 70%
    04:00 -5°C° 0 mm 9 mps 735 mmHg 69%
    05:00 -6°C° 0 mm 8 mps 737 mmHg 69%
    06:00 -6°C° 0 mm 8 mps 738 mmHg 68%
    07:00 -6°C° 0 mm 8 mps 739 mmHg 68%
    08:00 -5°C° 0 mm 8 mps 740 mmHg 67%
    09:00 -5°C° 0 mm 8 mps 741 mmHg 67%
    10:00 -4°C° 0 mm 8 mps 742 mmHg 65%
    11:00 -3°C° 0 mm 7 mps 743 mmHg 63%
    12:00 -2°C° 0 mm 7 mps 744 mmHg 60%
    13:00 -2°C° 0 mm 7 mps 744 mmHg 59%
    14:00 -2°C° 0 mm 7 mps 744 mmHg 58%
    15:00 -2°C° 0 mm 7 mps 744 mmHg 56%
    16:00 -3°C° 0 mm 6 mps 745 mmHg 59%
    17:00 -4°C° 0 mm 5 mps 745 mmHg 63%
    18:00 -5°C° 0 mm 4 mps 746 mmHg 66%
    19:00 -5°C° 0 mm 4 mps 746 mmHg 67%
    20:00 -6°C° 0 mm 3 mps 747 mmHg 68%
    21:00 -7°C° 0 mm 3 mps 747 mmHg 69%
    22:00 -7°C° 0 mm 3 mps 747 mmHg 69%
    23:00 -7°C° 0 mm 3 mps 748 mmHg 69%

    Day after tomorrow, 25 February, Monday

    Time Temperature Precipitation Wind Pressure Humidity
    00:00 -8°C° 0 mm 3 mps 748 mmHg 68%
    01:00 -8°C° 0 mm 3 mps 748 mmHg 67%
    02:00 -7°C° 0 mm 2 mps 748 mmHg 66%
    03:00 -6°C° 0 mm 1 mps 748 mmHg 65%
    04:00 -7°C° 0 mm 2 mps 748 mmHg 64%
    05:00 -7°C° 0 mm 2 mps 747 mmHg 64%
    06:00 -7°C° 0 mm 2 mps 747 mmHg 64%
    07:00 -6°C° 0 mm 2 mps 747 mmHg 61%
    08:00 -7°C° 0 mm 3 mps 747 mmHg 59%
    09:00 -6°C° 0 mm 3 mps 748 mmHg 56%
    10:00 -4°C° 0 mm 3 mps 747 mmHg 51%
    11:00 -1°C° 0 mm 3 mps 747 mmHg 46%
    12:00 +1°C° 0 mm 3 mps 746 mmHg 41%
    13:00 +2°C° 0 mm 3 mps 746 mmHg 41%
    14:00 +4°C° 0 mm 2 mps 745 mmHg 41%
    15:00 +6°C° 0 mm 2 mps 744 mmHg 41%
    16:00 +4°C° 0 mm 2 mps 744 mmHg 47%
    17:00 +2°C° 0 mm 3 mps 744 mmHg 53%
    18:00 0°C° 0 mm 4 mps 744 mmHg 59%
    19:00 -1°C° 0 mm 4 mps 744 mmHg 59%
    20:00 -2°C° 0 mm 4 mps 745 mmHg 59%
    21:00 -2°C° 0 mm 5 mps 745 mmHg 59%
    22:00 -4°C° 0 mm 5 mps 745 mmHg 57%
    23:00 -5°C° 0 mm 5 mps 745 mmHg 55%

    26 February, Tuesday

    Time Temperature Precipitation Wind Pressure Humidity
    00:00 -6°C° 0 mm 5 mps 745 mmHg 54%
    01:00 -6°C° 0 mm 5 mps 745 mmHg 53%
    02:00 -6°C° 0 mm 5 mps 745 mmHg 52%
    03:00 -6°C° 0 mm 5 mps 745 mmHg 51%
    04:00 -6°C° 0 mm 5 mps 745 mmHg 52%
    05:00 -6°C° 0 mm 5 mps 745 mmHg 53%
    06:00 -7°C° 0 mm 5 mps 744 mmHg 54%
    07:00 -6°C° 0 mm 5 mps 745 mmHg 54%
    08:00 -5°C° 0 mm 5 mps 745 mmHg 54%
    09:00 -4°C° 0 mm 5 mps 745 mmHg 55%
    10:00 -1°C° 0 mm 5 mps 744 mmHg 56%
    11:00 +2°C° 0 mm 5 mps 744 mmHg 57%
    12:00 +5°C° 0 mm 4 mps 743 mmHg 59%
    13:00 +7°C° 0 mm 4 mps 742 mmHg 59%
    14:00 +10°C° 0 mm 4 mps 741 mmHg 60%
    15:00 +12°C° 0 mm 4 mps 740 mmHg 60%
    16:00 +11°C° 0 mm 3 mps 740 mmHg 67%
    17:00 +10°C° 0 mm 2 mps 740 mmHg 74%
    18:00 +9°C° 0 mm 1 mps 739 mmHg 81%
    19:00 +9°C° 0.1 mm 1 mps 739 mmHg 84%
    20:00 +9°C° 0.1 mm 1 mps 740 mmHg 87%
    21:00 +9°C° 0.1 mm 1 mps 740 mmHg 91%
    22:00 +9°C° 0.1 mm 1 mps 740 mmHg 92%
    23:00 +8°C° 0.1 mm 2 mps 739 mmHg 93%

    27 February, Wednesday

    Time Temperature Precipitation Wind Pressure Humidity
    00:00 +8°C° 0.1 mm 2 mps 739 mmHg 95%
    01:00 +7°C° 0 mm 2 mps 739 mmHg 95%
    02:00 +7°C° 0 mm 2 mps 739 mmHg 96%
    03:00 +7°C° 0 mm 2 mps 740 mmHg 97%
    04:00 +5°C° 0 mm 3 mps 740 mmHg 94%
    05:00 +4°C° 0 mm 4 mps 740 mmHg 92%
    06:00 +3°C° 0 mm 4 mps 741 mmHg 90%
    07:00 +3°C° 0 mm 4 mps 741 mmHg 88%
    08:00 +1°C° 0 mm 4 mps 742 mmHg 85%
    09:00 +1°C° 0 mm 4 mps 742 mmHg 83%
    10:00 +1°C° 0 mm 5 mps 743 mmHg 79%
    11:00 +2°C° 0 mm 5 mps 743 mmHg 74%
    12:00 +2°C° 0 mm 5 mps 743 mmHg 69%
    13:00 +2°C° 0 mm 5 mps 743 mmHg 68%
    14:00 +3°C° 0 mm 5 mps 742 mmHg 66%
    15:00 +3°C° 0 mm 5 mps 742 mmHg 64%
    16:00 +3°C° 0 mm 4 mps 742 mmHg 66%
    17:00 +1°C° 0 mm 4 mps 742 mmHg 68%
    18:00 0°C° 0 mm 4 mps 742 mmHg 69%
    19:00 -1°C° 0 mm 4 mps 742 mmHg 71%
    20:00 -1°C° 0 mm 4 mps 742 mmHg 73%
    21:00 -2°C° 0 mm 4 mps 742 mmHg 74%
    22:00 -3°C° 0.1 mm 4 mps 741 mmHg 76%
    23:00 -3°C° 0.1 mm 4 mps 741 mmHg 77%

    28 February, Thursday

    Time Temperature Precipitation Wind Pressure Humidity
    00:00 -4°C° 0.1 mm 3 mps 740 mmHg 79%
    01:00 -4°C° 0.1 mm 3 mps 740 mmHg 79%
    02:00 -4°C° 0.1 mm 3 mps 740 mmHg 80%
    03:00 -4°C° 0.1 mm 3 mps 740 mmHg 80%
    04:00 -4°C° 0 mm 3 mps 740 mmHg 80%
    05:00 -4°C° 0 mm 3 mps 740 mmHg 80%
    06:00 -4°C° 0 mm 3 mps 740 mmHg 80%
    07:00 -4°C° 0 mm 3 mps 741 mmHg 76%
    08:00 -4°C° 0 mm 3 mps 741 mmHg 73%
    09:00 -2°C° 0 mm 3 mps 741 mmHg 70%
    10:00 -1°C° 0 mm 3 mps 741 mmHg 65%
    11:00 +1°C° 0 mm 3 mps 741 mmHg 60%
    12:00 +2°C° 0 mm 3 mps 740 mmHg 56%
    13:00 +3°C° 0 mm 3 mps 740 mmHg 54%
    14:00 +4°C° 0 mm 3 mps 739 mmHg 53%
    15:00 +4°C° 0 mm 3 mps 739 mmHg 52%
    16:00 +4°C° 0 mm 2 mps 739 mmHg 56%
    17:00 +3°C° 0 mm 2 mps 738 mmHg 60%
    18:00 +2°C° 0 mm 2 mps 738 mmHg 64%
    19:00 +1°C° 0 mm 2 mps 738 mmHg 66%
    20:00 -1°C° 0 mm 2 mps 738 mmHg 68%
    21:00 -2°C° 0 mm 2 mps 738 mmHg 70%
    22:00 -2°C° 0 mm 2 mps 738 mmHg 70%
    23:00 -2°C° 0 mm 2 mps 738 mmHg 70%
    Show more